Hourly Data Report for October 27, 2015

All times are specified in Local Standard Time (LST). Add 1 hour to adjust for Daylight Saving Time where and when it is observed.

PANGNIRTUNG
NUNAVUT

66°08'36.300" N
65°42'40.500" W
22.60 m
2403049
71826
WXP

Download Data

Hourly Data (October 2015)
Hourly Data Report for October 27, 2015
Temp Definition
°C
Dew Point Temp Definition
°C
Rel Hum Definition
%
Wind Dir Definition
10's deg

Wind Spd Definition
km/h
Visibility Definition
km
Stn Press Definition
kPa
Hmdx Definition


Wind Chill Definition


Weather Definition


TIME
00:00 -11.5 -17.3 62 10 14   99.17   -18 LegendNANA
01:00 -11.0 -16.2 66 9 11   99.14   -17 LegendNANA
02:00 -10.6 -15.6 67 9 19   99.13   -18 LegendNANA
03:00 -10.7 -14.4 74 8 15   99.15   -18 LegendNANA
04:00 -10.1 -12.7 81 7 16   99.14   -17 LegendNANA
05:00 -10.1 -11.9 87 8 19   99.17   -18 LegendNANA
06:00 -10.0 -11.2 91 8 22   99.19   -18 LegendNANA
07:00 -9.7 -12.3 81 8 19   99.22   -17 LegendNANA
08:00 -9.8 -11.9 85 9 21   99.23   -18 LegendNANA
09:00 -9.3 -11.9 82 7 19   99.24   -17 LegendNANA
10:00 -9.1 -11.7 81 8 18   99.27   -16 LegendNANA
11:00 -8.8 -12.4 75 8 19   99.27   -16 LegendNANA
12:00 -8.4 -13.0 69 8 20   99.30   -16 LegendNANA
13:00 -8.4 -13.3 68 8 17   99.33   -15 LegendNANA
14:00 -8.4 -13.9 65 8 22   99.36   -16 LegendNANA
15:00 -8.0 -13.0 67 8 24   99.42   -16 LegendNANA
16:00 -7.6 -12.5 68 8 21   99.47   -15 LegendNANA
17:00 -8.0 -12.7 69 8 25   99.51   -16 LegendNANA
18:00 -7.3 -11.9 70 8 19   99.55   -14 LegendNANA
19:00 -6.9 -12.4 65 8 19   99.59   -14 LegendNANA
20:00 -6.5 -12.8 61 9 24   99.63   -14 LegendNANA
21:00 -6.4 -13.0 59 8 23   99.68   -14 LegendNANA
22:00 -5.9 -13.2 56 9 22   99.71   -13 LegendNANA
23:00 -5.9 -13.7 54 9 20   99.79   -13 LegendNANA

Notes on Data Quality.

Legend

  • E = Estimated
  • M = Missing
  • NA = Not Available
  • ‡ = Partner data that is not subject to review by the National Climate Archives
Date modified: